www.pogodaiklimat.ru

Погода и климат >> Архив погоды >> Сенегал >> Каолак


ПОГОДА в Каолаке

  • Прогноз погоды в Каолаке
  • Монитор погоды в Каолаке

АРХИВ ПОГОДЫ в Каолаке

Время (UTC), дата Ветер
(напр.,м/с)
 
Видим.   Явления Облачность Т
(С)
Тd
(С)
f
(%)
Тe
(С)
Тes
(С)
Комфортность P
(гПа)
Po
(гПа)
Тmin
(С)
Tmax
(С)
R
(мм)
R24
(мм)
S
(см)
21 11.07 СЗ 4 10 км 8/3 400 м
[Sc Ci sp]
+29.0 +21.6 64 +37 +37 очень
душно
1013.3 1012.5
00 12.07 З 5 10 км 4/0
[Ci sp]
+27.4 +21.6 71 +35 +35 очень
душно
1014.9 1014.1
06 12.07 З 3 10 км 4/0
[Ci sp]
+25.0 +22.3 85 +33 +33 очень
душно
1012.6 1011.8 +24.8
09 12.07 СЗ 2 10 км 3/0
[Ci sp]
+26.1 +21.0 74 +33 +39 очень
душно
1014.2 1013.4
12 12.07 З 2 10 км 4/0
[Ci sp]
+31.3 +18.6 47 +36 +55 опасность
солнечного
удара
1014.0 1013.2
15 12.07 З 4 10 км 3/0
[Ci sp]
+35.7 +19.8 39 +41 +52 опасность
перегрева
1011.8 1011.0
18 12.07 З 4 10 км 5/5 400 м
[Sc Ci sp]
+35.4 +20.9 43 +42 +43 опасность
перегрева
1010.3 1009.5 +38.0
21 12.07 ЮЗ 5 10 км 4/4 400 м
[Sc]
+28.8 +21.1 63 +36 +36 очень
душно
1012.8 1012.0
00 13.07 З 4 10 км 4/0
[Ac trans]
+27.1 +22.3 75 +35 +35 очень
душно
1014.5 1013.7
03 13.07 З 4 10 км 4/0
[Ac trans]
+25.4 +25.5 100 +37 +37 очень
душно
1014.0 1013.2
06 13.07 штиль 0 10 км 4/0
[Ac trans]
+26.2 +22.4 80 +34 +34 очень
душно
1013.2 1012.4 +26.0
09 13.07 СЗ 2 10 км 9/4 400 м
[Sc Ac As]
+27.2 +22.8 77 +36 +38 очень
душно
1013.9 1013.1
12 13.07 В 2 10 км 5/0
[Ci sp]
+32.1 +22.1 56 +41 +59 опасность
перегрева
1013.5 1012.7
18 13.07 СЗ 2 10 км 4/0
[Ac trans]
+36.2 +22.3 45 +45 +47 опасность
перегрева
1010.5 1009.7 +37.0
21 13.07 СЗ 4 10 км 4/0
[Ac trans]
+30.4 +22.7 63 +40 +40 очень
душно
1012.7 1011.9
00 14.07 СЗ 5 10 км зарница 8/1 480 м
[Cb calv Ac As]
+27.9 +23.1 75 +37 +37 очень
душно
1014.9 1014.1
03 14.07 СЗ 4 10 км в посл. час гроза {дождь} 8/1 480 м
[Cb cap Ac As]
+26.9 +23.4 81 +36 +36 очень
душно
1014.1 1013.3
06 14.07 СЗ 2 10 км {гроза, дождь} 8/5 400 м
[Sc Ci sp]
+26.4 +23.2 83 +36 +36 очень
душно
1012.7 1011.9 +26.2 2
09 14.07 штиль 0 10 км 5/0
[Ci sp]
+28.0 +23.4 76 +38 +45 очень
душно
1013.9 1013.1
12 14.07 штиль 0 10 км 5/3 400 м
[Cu med, cong Ci sp]
+32.2 +22.7 57 +42 +60 опасность
перегрева
1014.2 1013.7
15 14.07 З 3 10 км 8/5 540 м
[Cu med, cong Ac trans Ci sp]
+36.2 +23.1 47 +46 +51 опасность
перегрева
1012.1 1011.3
18 14.07 З 3 10 км 8/8 600 м
[Cu med, cong Ci sp]
+34.5 +23.9 54 +46 +46 опасность
перегрева
1012.1 1011.3 +36.5
21 14.07 З 4 10 км 4/3 450 м
[Sc Ci sp]
+29.5 +23.8 71 +40 +40 очень
душно
1013.2 1012.4
00 15.07 СЗ 4 10 км 6/5 450 м
[Sc Ci sp]
+28.5 +22.2 69 +37 +37 очень
душно
1014.7 1013.9
03 15.07 З 4 10 км 8/8 400 м
[Sc]
+26.5 +22.8 80 +35 +35 очень
душно
1013.9 1013.1
06 15.07 СЗ 4 10 км 6/6 450 м
[Sc]
+27.5 +22.4 74 +36 +36 очень
душно
1012.5 1011.7 +27.0
09 15.07 СЗ 3 10 км 5/4 540 м
[Cu med, cong Ci sp]
+28.5 +22.7 71 +38 +41 очень
душно
1013.4 1012.6
12 15.07 З 3 10 км 5/5 600 м
[Cu med, cong]
+34.0 +20.8 46 +41 +49 опасность
перегрева
1013.3 1012.5
15 15.07 ЮЗ 5 10 км 3/3 600 м
[Cu med, cong]
+35.4 +19.2 39 +41 +47 опасность
перегрева
1010.7 1009.9
18 15.07 ЮЗ 6 10 км 3/3 600 м
[Cu med, cong Ci sp]
+32.5 +21.5 52 +40 +41 очень
душно
1010.5 1009.7 +35.6
21 15.07 З 5 10 км 3/0
[Ci sp]
+27.3 +21.7 72 +35 +35 очень
душно
1012.0 1011.2
00 16.07 З 4 10 км 3/0
[Ci sp]
+26.0 +20.2 70 +32 +32 очень
душно
1012.8 1012.0
03 16.07 З 5 10 км 3/0
[Ci sp]
+24.9 +20.5 77 +31 +31 очень
душно
1012.6 1011.8
06 16.07 СЗ 2 10 км 3/0
[Ci sp]
+25.0 +20.3 75 +31 +31 очень
душно
1010.5 1009.7 +24.8
09 16.07 С 2 10 км 8/0
[Ci sp]
+26.2 +20.1 69 +32 +37 очень
душно
1011.8 1011.0
12 16.07 С 3 10 км 8/5 540 м
[Sc diur, vesp Ci sp]
+29.5 +19.7 56 +36 +43 очень
душно
1013.6 1012.8
15 16.07 ЮВ 2 10 км 8/3 540 м
[Sc diur, vesp Ci sp]
+35.0 +20.2 42 +41 +51 опасность
перегрева
1010.7 1009.9
18 16.07 ЮЗ 3 10 км 6/3 450 м
[Cu med, cong Ci sp]
+35.5 +19.9 40 +41 +42 опасность
перегрева
1009.3 1008.5 +36.2
21 16.07 З 4 10 км 8/6 450 м
[Sc Ac As Ci sp]
+11.0 +22.3 100 +8 +8 1012.1 1011.3
00 17.07 СЗ 3 10 км 9/8 450 м
[Sc Ac As]
+28.5 +22.2 69 +37 +37 очень
душно
1014.3 1013.5
03 17.07 З 4 10 км 6/4 300 м
[Sc Ci sp]
+27.2 +22.5 76 +36 +36 очень
душно
1013.7 1012.9
06 17.07 СЗ 3 10 км 8/0
[Ac trans Ci sp]
+27.0 +22.6 77 +36 +36 очень
душно
1013.5 1012.7 +27.0
09 17.07 СЗ 3 10 км 9/4 450 м
[Sc Ac As]
+28.4 +21.9 68 +37 +38 очень
душно
1015.6 1014.8
12 17.07 СЗ 3 10 км 8/5 540 м
[Cu med, cong Ac As Ci sp]
+32.5 +22.4 55 +42 +47 опасность
перегрева
1016.3 1015.5
15 17.07 ЮЗ 2 10 км 8/5 540 м
[Cu med, cong Ac As Ci sp]
+36.2 +22.3 45 +45 +51 опасность
перегрева
1014.1 1013.3
18 17.07 ЮЗ 6 10 км 6/4 540 м
[Cu med, cong Ac As Ci sp]
+34.3 +22.3 50 +43 +44 опасность
перегрева
1013.1 1012.3 +36.6
21 17.07 З 4 10 км 3/0
[Ci sp]
+29.8 +22.5 65 +39 +39 очень
душно
1015.1 1014.3
00 18.07 СЗ 4 10 км ясно +28.2 +23.3 75 +38 +38 очень
душно
1016.0 1015.2
06 18.07 СЗ 2 10 км 6/6 400 м
[Sc]
+27.5 +23.8 80 +38 +38 очень
душно
1014.7 1013.9 +27.3
09 18.07 С 3 10 км 9/6 480 м
[Cu med, cong Ac As]
+28.3 +23.6 76 +39 +40 очень
душно
1016.1 1015.3
12 18.07 С 5 10 км 9/6 400 м
[Cu med, cong Ac As]
+31.3 +23.3 63 +42 +44 опасность
перегрева
1015.9 1015.1
15 18.07 З 6 10 км 9/6 400 м
[Cu med, cong Ac As]
+32.5 +22.0 54 +41 +42 опасность
перегрева
1013.4 1012.6
18 18.07 СЗ 7 10 км 9/6 400 м
[Cu med, cong Ac As Ci sp]
+33.5 +20.5 47 +40 +41 очень
душно
1012.6 1011.8 +35.2

 

Местоположение метеостанции Каолак (Сенегал): широта 14.13 долгота -16.06 высота над уровнем моря 7 м.

В архиве по умолчанию представлена погода в Каолаке за последнюю неделю. Архивные данные за месяц целиком и за предыдущие месяцы, начиная с января 2011 года, Вы можете получить, выбрав интересующий диапазон дат из раскрывающегося списка и нажав кнопку "Ввод!".


*Определитесь, кто Вы:
робот инопланетянин человек

Внимание! Время в таблицах - всемирное. Для получения местного времени необходимо прибавить поправку, которая равна 0 ч.

Смотрите также архив погоды в соседних городах и на ближайших метеорологических станциях:

Погода в Диурбеле (Сенегал) (61 км)
Погода в Сапу (Гамбия) (64 км)
Погода в Кереване (Гамбия) (71 км)
Погода в Банжуле Half-Die (Гамбия) (87 км)
Погода в Женое (Гамбия) (90 км)
Погода в Кауере (Гамбия) (93 км)
Погода в Сибаноре (Гамбия) (102 км)
Погода в Банжуле (Гамбия) (109 км)
Погода в Джорджтауне (Гамбия) (154 км)
Погода в Дакаре (Сенегал) (169 км)

Пояснения к столбцам:

Ветер - указаны скорость ветра в м/с - средняя за 10 мин, порывы в срок и между сроками (в фигурных скобках) и направление, откуда дует ветер: С - северный, СВ - северо-восточный, В - восточный, ЮВ - юго-восточный, Ю - южный, ЮЗ - юго-западный, З - западный, СЗ - северо-западный.
Видимость - горизонтальная дальность видимости в метрах или километрах. При видимости от 1 до 10 км при отсутствии осадков обычно наблюдается дымка, при ухудшении видимости до 1 км и менее - туман. В сухую погоду видимость может ухудшаться дымом, пылью или мглою.
Явления - указаны атмосферные явления, наблюдавшиеся в срок или в последний час перед сроком; фигурными скобками обозначены явления, наблюдавшиеся между сроками (за 1-3 часа до срока); квадратными скобками обозначены град или гололедные отложения с указанием их диаметра в мм.
Облачность - указаны через наклонную черту общая и нижняя облачность в баллах и высота нижней границы облаков в метрах; квадратными скобками обозначены формы облаков: Ci - перистые, Cs - перисто-слоистые, Cc - перисто-кучевые, Ac - высококучевые, As - высокослоистые, Sc - слоисто-кучевые, Ns - слоисто-дождевые, Cu - кучевые, Cb - кучево-дождевые. Подробнее классификацию облаков см. в Атласе облаков (PDF).
T - Температура воздуха - температура, измеренная на высоте 2 м над землей.
Td - Температура точки росы - температура, при понижении до которой содержащийся в воздухе водяной пар достигнет насыщения.
f - Относительная влажность воздуха - влажноcть воздуха, измеренная на высоте 2 м над землей.
Te - Эффективная температура - температура, которую ощущает одетый по сезону человек в тени. Характеристика душности погоды. При расчете учитывается влияние влажности воздуха и скорости ветра на теплоощущения человека.
Tes - Эффективная температура на солнце - температура, которую ощущает человек, с поправкой на солнечный нагрев. Характеристика знойности погоды. Зависит от высоты солнца над горизонтом, облачности и скорости ветра. Ночью, в пасмурную погоду, а также при ветре 12 м/с и более поправка равна нулю.
P - Атмосферное давление - приведенное к уровню моря атмосферное давление.
Po - Атмосферное давление - измеренное на уровне метеостанции атмосферное давление.
Tmin - Минимальная температура - минимум температуры воздуха на высоте 2 м над землей.
Tmax - Максимальная температура - максимум температуры воздуха на высоте 2 м над землей.
R - Количество осадков - Количество выпавших осадков за период времени, мм. При наведении курсора мыши на число - период времени, за который выпало указанное количество осадков.
R24 - Количество осадков - Количество выпавших осадков за 24 часа, мм.
S - Снежный покров - Высота снежного покрова, см. При наведении курсора мыши на число - состояние снежного покрова и степень покрытия местности в баллах.